Location: Bottom School (historical)
(37.9078°N, 89.3593°W)
Time: 13:17:38
(UTC+00:00)

CZ-2D R/B - Pass Details

Date: 08 December 2021
Orbit: 520 x 535 km, 97.4° (Epoch: 19 January)

Event Time Altitude Azimuth Distance (km) Brightness Sun altitude
Rises 12:27:31 0° 13° (NNE) 2,652 6.7 -6.7°
Reaches altitude 10° 12:29:37 10° 16° (NNE) 1,759 5.8 -6.4°
Maximum altitude 12:33:25 74° 101° (E) 546 3.5 -5.7°
Drops below altitude 10° 12:37:10 10° 187° (S) 1,748 6.1 -5.0°
Sets 12:39:16 0° 189° (S) 2,633 7.0 -4.6°
